Daviess Cnty AP, Washington,, IN

4:40 AM EDT on July 19, 2019 (GMT -0400)
Daviess County

Weather History for KDCY - May, 2019

Change the Weather History Date:

Saturday, May 18, 2019

  Actual Average (WUND) Record (WUND)
Temperature  
Mean Temperature 76 °F -  
Max Temperature 88 °F - - (-1)
Min Temperature 65 °F - - (-1)
Cooling Degree Days 12    
Growing Degree Days 26 (Base 50)    
Moisture  
Dew Point 60 °F    
Average Humidity 59    
Maximum Humidity 88    
Minimum Humidity 33    
Precipitation  
Precipitation 0.00 in - - ()
Sea Level Pressure  
Sea Level Pressure 29.88 in    
Wind  
Wind Speed 11 mph (SSW)    
Max Wind Speed 22 mph    
Max Gust Speed 31 mph    
Visibility 10 miles    
Events      
Averages and records for this station are not official NWS values.
T = Trace of Precipitation, MM = Missing Value Source: NWS Daily Summary

Daily Weather History Graph

Daily Weather History Graph

Search for Another Location

Airport or City:

Astronomy

May. 18, 2019 Rise Set
Actual Time 6:34 AM EDT 8:56 PM EDT
Civil Twilight 6:04 AM EDT 9:26 PM EDT
Nautical Twilight 5:26 AM EDT 10:03 PM EDT
Astronomical Twilight 4:45 AM EDT 10:44 PM EDT
Moon 8:51 PM EDT (5/18) 6:39 AM EDT (5/18)
Length of Visible Light 15h 22m
Length of Day
14h 22m
Full, 100% of the Moon is Illuminated
May 18
Full
May 18
Full
May 26
Last Quarter
Jun 3
New
Jun 10
First Quarter

Hourly Weather History & Observations

Time (EDT) Temp. Heat Index Dew Point Humidity Pressure Visibility Wind Dir Wind Speed Gust Speed Precip Events Conditions
12:15 AM 71.6 °F - 60.8 °F 69% 29.89 in 10.0 mi South 9.2 mph - N/A   Clear
12:35 AM 72.5 °F - 60.8 °F 67% 29.90 in 10.0 mi South 9.2 mph - N/A   Clear
12:55 AM 70.9 °F - 60.8 °F 70% 29.90 in 10.0 mi South 8.1 mph - N/A   Clear
1:15 AM 69.8 °F - 60.6 °F 73% 29.90 in 10.0 mi South 8.1 mph - N/A   Clear
1:35 AM 71.4 °F - 60.8 °F 69% 29.90 in 10.0 mi South 9.2 mph - N/A   Clear
1:55 AM 71.1 °F - 61.2 °F 71% 29.90 in 10.0 mi SSW 8.1 mph - N/A   Clear
2:15 AM 72.0 °F - 61.5 °F 70% 29.90 in 10.0 mi SSW 9.2 mph - N/A   Clear
2:35 AM 71.6 °F - 61.7 °F 71% 29.90 in 10.0 mi SSW 9.2 mph - N/A   Clear
2:55 AM 71.1 °F - 61.7 °F 72% 29.89 in 10.0 mi South 9.2 mph - N/A   Clear
3:15 AM 70.5 °F - 61.7 °F 74% 29.89 in 10.0 mi SSW 10.4 mph - N/A   Clear
3:35 AM 70.2 °F - 61.7 °F 74% 29.89 in 10.0 mi South 9.2 mph - N/A   Clear
3:55 AM 70.5 °F - 61.9 °F 74% 29.89 in 10.0 mi SSW 9.2 mph - N/A   Clear
4:15 AM 69.1 °F - 61.7 °F 77% 29.89 in 10.0 mi South 8.1 mph - N/A   Clear
4:35 AM 68.4 °F - 61.7 °F 79% 29.89 in 10.0 mi South 8.1 mph - N/A   Clear
4:55 AM 67.3 °F - 61.7 °F 82% 29.90 in 10.0 mi South 8.1 mph - N/A   Clear
5:15 AM 66.7 °F - 61.7 °F 84% 29.90 in 10.0 mi South 8.1 mph - N/A   Clear
5:35 AM 66.9 °F - 61.7 °F 83% 29.90 in 10.0 mi South 9.2 mph - N/A   Clear
5:55 AM 66.2 °F - 61.7 °F 85% 29.90 in 10.0 mi South 8.1 mph - N/A   Clear
6:15 AM 65.7 °F - 61.9 °F 88% 29.91 in 10.0 mi South 8.1 mph - N/A   Clear
6:35 AM 65.5 °F - 61.9 °F 88% 29.92 in 10.0 mi South 8.1 mph - N/A   Clear
6:55 AM 65.7 °F - 62.1 °F 88% 29.92 in 10.0 mi South 9.2 mph - N/A   Clear
7:15 AM 66.2 °F - 62.2 °F 87% 29.92 in 10.0 mi South 9.2 mph - N/A   Clear
7:35 AM 67.1 °F - 62.6 °F 85% 29.93 in 10.0 mi South 9.2 mph - N/A   Clear
7:55 AM 68.5 °F - 62.8 °F 82% 29.93 in 10.0 mi South 10.4 mph - N/A   Clear
8:15 AM 70.7 °F - 63.1 °F 77% 29.93 in 10.0 mi South 10.4 mph - N/A   Clear
8:35 AM 72.7 °F - 63.5 °F 73% 29.93 in 10.0 mi South 9.2 mph - N/A   Clear
8:55 AM 74.5 °F - 63.5 °F 68% 29.94 in 10.0 mi SSW 10.4 mph 16.1 mph N/A   Clear
9:15 AM 76.1 °F - 63.5 °F 65% 29.94 in 10.0 mi South 10.4 mph - N/A   Clear
9:35 AM 77.4 °F - 63.0 °F 61% 29.94 in 10.0 mi SSW 9.2 mph 17.3 mph N/A   Clear
9:55 AM 78.8 °F - 62.6 °F 57% 29.93 in 10.0 mi SSW 11.5 mph - N/A   Clear
10:15 AM 79.9 °F - 62.8 °F 56% 29.93 in 10.0 mi SSW 12.7 mph 17.3 mph N/A   Clear
10:35 AM 81.0 °F 81.9 °F 61.9 °F 52% 29.92 in 10.0 mi SSW 13.8 mph 17.3 mph N/A   Clear
10:55 AM 82.2 °F 83.0 °F 62.1 °F 50% 29.92 in 10.0 mi SSW 13.8 mph - N/A   Clear
11:15 AM 82.9 °F 83.7 °F 61.9 °F 49% 29.91 in 10.0 mi SSW 10.4 mph - N/A   Clear
11:35 AM 83.8 °F 84.1 °F 61.0 °F 46% 29.90 in 10.0 mi SW 16.1 mph 23.0 mph N/A   Clear
11:55 AM 84.2 °F 84.4 °F 60.8 °F 45% 29.90 in 10.0 mi SW 15.0 mph 25.3 mph N/A   Clear
12:15 PM 84.9 °F 85.0 °F 60.6 °F 44% 29.90 in 10.0 mi SW 15.0 mph 23.0 mph N/A   Scattered Clouds
12:35 PM 85.5 °F 85.0 °F 59.0 °F 41% 29.90 in 10.0 mi SSW 18.4 mph 31.1 mph N/A   Scattered Clouds
12:55 PM 85.6 °F 85.2 °F 59.2 °F 41% 29.89 in 10.0 mi South 17.3 mph 24.2 mph N/A   Clear
1:35 PM 86.4 °F 85.9 °F 59.7 °F 40% 29.89 in 10.0 mi SSW 17.3 mph 26.5 mph N/A   Scattered Clouds
1:55 PM 86.5 °F 85.9 °F 59.2 °F 39% 29.89 in 10.0 mi SSW 18.4 mph 24.2 mph N/A   Scattered Clouds
2:15 PM 87.3 °F 86.7 °F 59.7 °F 39% 29.88 in 10.0 mi SW 15.0 mph 28.8 mph N/A   Scattered Clouds
2:35 PM 86.9 °F 86.3 °F 59.2 °F 39% 29.87 in 10.0 mi SW 16.1 mph 25.3 mph N/A   Scattered Clouds
2:55 PM 87.6 °F 86.9 °F 59.0 °F 38% 29.86 in 10.0 mi SSW 19.6 mph 26.5 mph N/A   Scattered Clouds
3:15 PM 87.3 °F 86.3 °F 58.1 °F 37% 29.86 in 10.0 mi SSW 19.6 mph 26.5 mph N/A   Scattered Clouds
3:35 PM 87.1 °F 86.3 °F 58.6 °F 38% 29.85 in 10.0 mi South 21.9 mph 31.1 mph N/A   Scattered Clouds
3:55 PM 88.0 °F 86.7 °F 56.8 °F 35% 29.85 in 10.0 mi SW 21.9 mph 28.8 mph N/A   Clear
4:15 PM 88.7 °F 87.3 °F 57.0 °F 34% 29.85 in 10.0 mi SSW 19.6 mph 26.5 mph N/A   Scattered Clouds
4:35 PM 88.0 °F 86.5 °F 56.5 °F 34% 29.85 in 10.0 mi SSW 17.3 mph 26.5 mph N/A   Clear
4:55 PM 87.4 °F 86.5 °F 58.1 °F 37% 29.85 in 10.0 mi South 16.1 mph 21.9 mph N/A   Scattered Clouds
5:15 PM 87.4 °F 85.7 °F 55.2 °F 33% 29.85 in 10.0 mi SSW 20.7 mph 26.5 mph N/A   Scattered Clouds
5:35 PM 88.0 °F 86.7 °F 57.4 °F 35% 29.84 in 10.0 mi SSW 18.4 mph 23.0 mph N/A   Scattered Clouds
5:55 PM 85.5 °F 84.5 °F 57.4 °F 38% 29.84 in 10.0 mi SSW 13.8 mph 23.0 mph N/A   Scattered Clouds
6:15 PM 86.9 °F 85.9 °F 57.4 °F 37% 29.84 in 10.0 mi South 18.4 mph - N/A   Clear
6:35 PM 86.4 °F 85.1 °F 56.8 °F 36% 29.83 in 10.0 mi SSW 16.1 mph 19.6 mph N/A   Clear
6:55 PM 86.0 °F 84.7 °F 56.5 °F 36% 29.83 in 10.0 mi SW 8.1 mph - N/A   Clear
7:15 PM 85.3 °F 84.4 °F 57.4 °F 39% 29.82 in 10.0 mi SSW 10.4 mph - N/A   Scattered Clouds
7:35 PM 83.5 °F 83.1 °F 58.5 °F 42% 29.82 in 10.0 mi SSW 10.4 mph - N/A   Scattered Clouds
7:55 PM 82.8 °F 82.5 °F 58.3 °F 43% 29.81 in 10.0 mi SSW 9.2 mph - N/A   Clear
8:15 PM 81.9 °F 81.9 °F 58.3 °F 45% 29.81 in 10.0 mi SSW 6.9 mph - N/A   Clear
8:35 PM 79.9 °F - 58.6 °F 48% 29.81 in 10.0 mi SSW 5.8 mph - N/A   Clear
8:55 PM 77.5 °F - 59.0 °F 53% 29.81 in 10.0 mi South 5.8 mph - N/A   Clear
9:15 PM 75.2 °F - 59.5 °F 58% 29.81 in 10.0 mi South 4.6 mph - N/A   Clear
9:35 PM 74.5 °F - 59.9 °F 60% 29.81 in 10.0 mi South 5.8 mph - N/A   Clear
9:55 PM 72.5 °F - 59.9 °F 64% 29.81 in 10.0 mi South 5.8 mph - N/A   Scattered Clouds
10:15 PM 72.3 °F - 59.7 °F 64% 29.81 in 10.0 mi South 6.9 mph - N/A   Scattered Clouds
10:35 PM 72.5 °F - 59.5 °F 64% 29.82 in 10.0 mi South 6.9 mph - N/A   Clear
10:55 PM 72.0 °F - 59.9 °F 66% 29.81 in 10.0 mi South 6.9 mph - N/A   Clear
11:15 PM 71.6 °F - 59.9 °F 66% 29.81 in 10.0 mi South 9.2 mph - N/A   Clear
11:35 PM 71.1 °F - 59.9 °F 68% 29.80 in 10.0 mi SSE 8.1 mph - N/A   Clear
11:55 PM 72.5 °F - 60.1 °F 65% 29.81 in 10.0 mi South 9.2 mph - N/A   Clear